View from above orbital plane
|
View from above satellite
|
Ground track
|
The orbit data is extracted from the following two-line orbital elements,
1 27601U 02056E 21016.58150821 -.00000085 00000-0 -16041-4 0 9990
2 27601 98.2048 47.1333 0072138 3.6032 105.4643 14.31994374945191
Epoch (UTC): | 16 January 2021 13:57:22 |
Eccentricity: | 0.0072138 |
inclination: | 98.2048° |
perigee height: | 733 km |
apogee height: | 837 km |
right ascension of ascending node: | 47.1333° |
argument of perigee: | 3.6032° |
revolutions per day: | 14.31994374 |
mean anomaly at epoch: | 105.4643° |
orbit number at epoch: | 94519 |
The dashed part of the orbit path shows where the satellite is in the earth's shadow,
|
|